Flag for U.S.A. Weather past 2 weeks in Salina, Kansas, U.S.A.

Now
62 °F

Clear.


Feels Like: 62 °F
Forecast: 50 / 74 °F
Wind: 3 mph from North

Location: Salina Municipal Airport

Current Time: Sep 21, 2014 at 11:56:42 PM

Latest Report: Sep 21, 2014 at 10:53 PM


Visibility: 10 mi

Pressure: 30.25 "Hg

Humidity: 56%

Dew point: 46 °F

Location of SalinaLocation

Historic Weather in Salina — Graph

°F

Salina temperature yesterday

Maximum temperature yesterday: 91 °F (at 3:53 PM)
Minimum temperature yesterday: 68 °F (at 5:53 AM)
Average temperature yesterday: 78 °F

Past Weeks' High & Low Weather Summary

 TemperatureHumidityPressure
High97 °F (Sep 9, 4:53 PM)96% (Sep 13, 8:53 AM)30.46 "Hg (Sep 13, 8:53 AM)
Low38 °F (Sep 13, 6:53 AM)27% (Sep 21, 3:53 PM)29.48 "Hg (Sep 9, 9:53 PM)
Average68 °F69%30.03 "Hg
* Reported Sep 6 10:53 PM — Sep 21 10:53 PM, Salina, Weather by CustomWeather, © 2014

Note: Actual official high and low records may vary slightly from our data, if they occured in-between our weather recording intervals... More about our weather records

Advertising

Salina weather history for previous 24 hours

 ConditionsComfort  
Time TempWeatherWind HumidityBarometerVisibility
10:53 PM
Sep 21
62 °FClear.3 mph56%30.25 "Hg10 mi
9:53 PM66 °FClear.3 mph49%30.23 "Hg10 mi
8:53 PM69 °FClear.6 mph41%30.22 "Hg10 mi
7:53 PM69 °FSunny.6 mph45%30.20 "Hg10 mi
6:53 PM74 °FSunny.10 mph33%30.19 "Hg10 mi
5:53 PM78 °FSunny.13 mph28%30.17 "Hg10 mi
4:53 PM78 °FSunny.14 mph29%30.17 "Hg10 mi
3:53 PM79 °FSunny.17 mph27%30.18 "Hg10 mi
2:53 PM79 °FSunny.10 mph30%30.18 "Hg10 mi
1:53 PM78 °FSunny.13 mph30%30.20 "Hg10 mi
12:53 PM78 °FSunny.14 mph33%30.22 "Hg10 mi
11:53 AM75 °FSunny.14 mph40%30.23 "Hg10 mi
10:53 AM72 °FSunny.8 mph55%30.23 "Hg10 mi
9:53 AM69 °FSunny.9 mph63%30.22 "Hg10 mi
8:53 AM64 °FSunny.5 mph73%30.20 "Hg10 mi
7:53 AM60 °FClear.6 mph78%30.18 "Hg10 mi
6:53 AM59 °FClear.7 mph81%30.15 "Hg10 mi
5:53 AM61 °FClear.7 mph78%30.13 "Hg10 mi
4:53 AM63 °FClear.5 mph73%30.11 "Hg10 mi
3:53 AM68 °FClear.8 mph61%30.09 "Hg10 mi
2:53 AM71 °FClear.12 mph59%30.08 "Hg10 mi
1:53 AM68 °FClear.5 mph90%30.05 "Hg10 mi
12:53 AM69 °FClear.No wind90%30.01 "Hg10 mi
11:53 PM
Sep 20
70 °FClear.5 mph90%30.01 "Hg10 mi
Weather by CustomWeather, © 2014

See weather overviewHow to use our weather pages